DECAYED
Showing default

ZHUHAI-1 01, 42761 (Decayed)

Orbit data source: Space-Track

ZHUHAI-1 01, 42761 was a payload satellite owned by Zhuhai Orbita (CN) in LEO that was launched on Thu, 15 Jun 2017 UTC via a CHANG ZHENG 4B launch vehicle from the Jiuquan Satellite Launch Center, China (JSC). Payload-class satellites include a variety of spacecraft equipped with specific instruments for various scientific and technological missions. These include communications satellites like Starlink; space stations such as the ISS; scientific satellites like the Hubble; Earth observation satellites from companies like Planet Labs, Umbra, and HawkEye 360; GPS; miniature CubeSats for education and research; and military/defense satellites.

Not visible in the next 10 days
Identifier
42761, 2017-034D
Orbit
Decayed
Country
Flag of CNCN / PRC
Related business
Manufacturer
Zhuhai Orbita
Mission
Decayed Commercial Imaging
Bus & Motor
OVS-1, Unknown motor
Mass
50 kg wet, 50 kg dry
Launch date (UTC)
2017-06-15 (9 years ago)
Launch vehicle
CHANG ZHENG 4B
Launch site
Jiuquan Satellite Launch Center, China (JSC)
Object type
Payload
Rocket body
Debris
Shape & HBR
Box, 0.5 m
Radar Cross Section
0.375 m², Medium (>0.1 m² and < 1m²)

Expand to show TLE details & history
Last TLE update: 7 months ago

TLE from 7 months ago
0 ZHUHAI-1 01
1 42761U 17034D   25281.34159269  .04203186  90411-5  12507-2 0  9993
2 42761  42.9927 303.5081 0008135  81.2710 278.9099 16.26032227461692
Epoch: 2025-10-08T08:11Z
TLE epoch observation values (Epoch: 2025-10-08T08:11:53.608Z)
Latitude
-0°
Longitude
163.31721°
Altitude
202.165 km
Speed
7.788 km/s
True Right ascension
20h 14m 01s
True Declination
0° 00' 00"
Sunlit
Object was in full shadow at epoch
Visualization orbit readout
Latitude
Unknown
Longitude
Unknown
Altitude
Unknown
Speed
Unknown
Apparent Right ascension
Unknown
Apparent Declination
Unknown
Sunlit
N/A
Visualization observer readout
Local Sidereal Time
14:08:10
Azimuth
Unknown
Elevation
Unknown
Doppler factor
Unknown
Orbital elements
Apogee altitude
210.609 km
Perigee altitude
199.898 km
Semi-major axis
6,583.39 km
Eccentricity
0.00081
Inclination
42.9927°
RAAN
303.5081°
Arg. of periapsis
81.271°
True anomaly
278.81779°
Mean anomaly
278.9099°
Eccentric anomaly
278.86385°
Mean motion
4.06321 °/min
Orbital period
88.6 mins
BSTAR
0.0012507
Loading maneuver chart data...
Computing Atmospheric mass density...
Loading historical data...
Loading historical data...
Loading historical data...
Loading historical data...
Loading historical data...
Loading historical data...
Loading historical data...

Documentation

Showing up to 5 results
|